www.pogodaiklimat.ru

Погода и климат >> Архив погоды >> Япония >> Гифу


ПОГОДА в Гифу

  • Прогноз погоды в Гифу
  • Монитор погоды в Гифу

АРХИВ ПОГОДЫ в Гифу

Время (UTC), дата Ветер
(напр.,м/с)
 
Видим.   Явления Облачность Т
(С)
Тd
(С)
f
(%)
Тe
(С)
Тes
(С)
Комфортность P
(гПа)
Po
(гПа)
Тmin
(С)
Tmax
(С)
R
(мм)
R24
(мм)
S
(см)
22 12.09 Ю 2 н/о н/о +24.8 +17.8 65 +29 +29 душно 1013.9 1011.9
23 12.09 З 2 н/о н/о +24.9 +18.6 68 +30 +30 душно 1014.5 1012.5
01 13.09 Ю 4 н/о н/о +24.7 +19.1 71 +30 +30 очень
душно
1014.2 1012.2
02 13.09 ЮЗ 2 н/о н/о +25.8 +18.7 65 +31 +31 очень
душно
1014.0 1012.0
03 13.09 ЮЗ 4 н/о н/о +25.7 +17.1 59 +30 +30 душно 1014.1 1012.1
04 13.09 ЮЗ 3 н/о н/о +26.0 +17.4 59 +30 +30 душно 1013.4 1011.4
05 13.09 ЮЗ 4 н/о н/о +26.5 +15.9 52 +30 +30 душно 1013.4 1011.4
06 13.09 ЮЗ 4 30 км {ливн. осадки} 10/5
[Cu Sc Ac As]
+26.3 +15.1 50 +29 +30 жарко 1013.5 1011.5 0.0
08 13.09 ЮЗ 3 н/о н/о +26.5 +15.6 51 +30 +30 душно 1013.6 1011.6
09 13.09 З 2 н/о н/о +25.7 +15.7 54 +29 +29 душно 1013.4 1011.4
10 13.09 З 3 н/о н/о +24.9 +16.4 59 +28 +28 жарко 1013.6 1011.6
11 13.09 ЮЗ 2 н/о н/о +24.3 +16.3 61 +28 +28 душно 1014.5 1012.5
12 13.09 СЗ 2 15 км 3/0
[Ac trans Ci fib]
+24.0 +16.3 62 +27 +27 жарко 1015.0 1013.0 +27.0 0.0
13 13.09 З 2 н/о н/о +24.0 +16.5 63 +27 +27 жарко 1015.4 1013.4
14 13.09 СЗ 2 н/о н/о +22.8 +17.5 72 +28 +28 душно 1015.1 1013.1
15 13.09 З 3 н/о н/о +22.7 +17.0 70 +27 +27 душно 1014.6 1012.6
16 13.09 СЗ 2 н/о н/о +22.2 +16.7 71 +27 +27 душно 1014.2 1012.2
17 13.09 СЗ 2 н/о н/о +22.5 +16.3 68 +27 +27 душно 1014.2 1012.2
18 13.09 С 2 н/о н/о +22.6 +16.4 68 +27 +27 душно 1014.1 1012.1
19 13.09 С 2 н/о н/о +22.4 +16.0 67 +27 +27 душно 1014.1 1012.1
21 13.09 СВ 1 н/о н/о +21.5 +16.5 73 +25 +25 комфорт 1014.4 1012.4
00 14.09 С 1 20 км 3/3
[Cu Sc Ac trans]
+25.3 +17.3 61 +29 +37 душно 1014.1 1012.1 +21.1
01 14.09 ЮЗ 2 н/о н/о +26.6 +16.5 54 +30 +30 душно 1013.7 1011.7
02 14.09 ЮЗ 1 н/о н/о +27.9 +15.9 48 +31 +31 душно 1013.4 1011.4
03 14.09 ЮЗ 2 н/о н/о +27.5 +15.5 48 +30 +30 жарко 1013.0 1011.0
04 14.09 З 3 н/о н/о +28.1 +16.1 48 +31 +31 душно 1012.3 1010.3
05 14.09 Ю 2 н/о н/о +28.5 +17.1 50 +32 +32 душно 1011.5 1009.5
06 14.09 Ю 3 20 км 3/3
[Cu Sc Ci sp]
+30.1 +17.2 46 +34 +38 очень
душно
1010.8 1008.8
07 14.09 ЮЗ 3 н/о н/о +29.2 +17.1 48 +33 +33 очень
душно
1011.0 1009.0
08 14.09 ЮЗ 4 н/о н/о +28.3 +16.9 50 +32 +32 душно 1011.2 1009.2
09 14.09 Ю 5 н/о н/о +27.4 +17.3 54 +31 +31 душно 1011.6 1009.6
10 14.09 Ю 4 н/о н/о +26.7 +19.1 63 +32 +32 очень
душно
1012.0 1010.0
11 14.09 Ю 2 н/о н/о +26.3 +19.7 67 +32 +32 очень
душно
1012.4 1010.4
12 14.09 ЮЗ 2 20 км 10/10
[Cu Sc]
+26.2 +20.1 69 +32 +32 очень
душно
1012.6 1010.6 +30.1
13 14.09 ЮЗ 2 н/о н/о +26.0 +19.9 69 +32 +32 очень
душно
1012.2 1010.2
14 14.09 З 2 н/о н/о +25.9 +20.0 70 +32 +32 очень
душно
1012.0 1010.0
15 14.09 СЗ 2 н/о н/о +25.7 +19.8 70 +31 +31 очень
душно
1011.7 1009.7
16 14.09 С 1 н/о н/о +25.2 +19.6 71 +31 +31 очень
душно
1011.2 1009.2
17 14.09 С 2 н/о н/о +24.8 +19.9 74 +30 +30 душно 1011.1 1009.1
18 14.09 СВ 1 н/о н/о +24.1 +19.8 77 +29 +29 душно 1011.0 1009.0
19 14.09 Ю 1 н/о н/о +23.3 +20.1 82 +30 +30 очень
душно
1010.9 1008.9
20 14.09 СЗ 1 н/о н/о +23.0 +20.0 83 +30 +30 очень
душно
1010.7 1008.7
21 14.09 СЗ 2 н/о н/о +22.7 +19.7 83 +29 +29 очень
душно
1010.5 1008.5
22 14.09 СЗ 1 н/о н/о +23.9 +19.4 76 +29 +29 душно 1010.3 1008.3
23 14.09 В 1 н/о н/о +25.6 +19.7 70 +31 +31 очень
душно
1010.1 1008.1
00 15.09 С 2 25 км 1/1
[Cu hum]
+27.0 +18.6 60 +32 +40 очень
душно
1010.0 1008.0 +22.6
01 15.09 С 1 н/о н/о +28.1 +17.0 51 +32 +32 душно 1009.3 1007.3
02 15.09 ЮВ 1 н/о н/о +29.3 +17.2 48 +33 +33 душно 1008.4 1006.4
03 15.09 Ю 1 н/о н/о +31.5 +17.8 44 +36 +36 очень
душно
1007.5 1005.6
04 15.09 Ю 2 н/о н/о +32.3 +18.1 43 +37 +37 очень
душно
1006.3 1004.4
05 15.09 Ю 2 н/о н/о +32.1 +16.8 40 +35 +35 очень
душно
1005.6 1003.7
06 15.09 ЮЗ 3 30 км 1/1
[Cu med, cong]
+33.7 +17.4 38 +37 +43 очень
душно
1005.0 1003.1
07 15.09 З 3 н/о н/о +33.3 +17.9 40 +37 +37 очень
душно
1004.7 1002.8
08 15.09 З 5 н/о н/о +32.2 +18.8 45 +37 +37 очень
душно
1004.4 1002.5
09 15.09 З 5 н/о н/о +30.7 +19.4 51 +36 +36 очень
душно
1004.5 1002.6
10 15.09 З 5 н/о н/о +29.5 +19.2 54 +35 +35 очень
душно
1005.2 1003.3
11 15.09 З 4 н/о н/о +28.6 +19.3 57 +34 +34 очень
душно
1005.7 1003.7
12 15.09 З 4 20 км 1/1
[Cu hum]
+27.9 +19.4 60 +34 +34 очень
душно
1005.7 1003.7 +33.9
13 15.09 СЗ 3 н/о н/о +27.3 +19.7 63 +33 +33 очень
душно
1005.5 1003.5
14 15.09 СЗ 2 н/о н/о +26.8 +19.7 65 +33 +33 очень
душно
1005.1 1003.1
16 15.09 З 2 н/о н/о +25.6 +19.7 70 +31 +31 очень
душно
1004.2 1002.2
17 15.09 СЗ 1 н/о н/о +25.4 +20.0 72 +31 +31 очень
душно
1004.2 1002.2
18 15.09 З 1 н/о н/о +24.8 +19.9 74 +30 +30 душно 1003.7 1001.7
19 15.09 З 2 н/о н/о +24.6 +20.1 76 +30 +30 очень
душно
1003.4 1001.4
21 15.09 С 2 н/о н/о +24.8 +19.2 71 +30 +30 душно 1003.0 1001.0
22 15.09 С 2 н/о н/о +26.7 +18.3 60 +31 +31 душно 1002.6 1000.6
23 15.09 З 2 н/о н/о +28.6 +18.7 55 +34 +34 очень
душно
1002.2 1000.3
00 16.09 З 4 30 км 1/1
[Cu hum Ac trans]
+30.0 +17.8 48 +34 +40 очень
душно
1001.8 999.9 +24.4
01 16.09 З 5 н/о н/о +32.1 +18.3 44 +37 +37 очень
душно
1001.2 999.3
03 16.09 СЗ 6 н/о н/о +33.8 +16.7 36 +37 +37 очень
душно
999.9 998.0
04 16.09 СЗ 7 н/о н/о +33.7 +17.4 38 +37 +37 очень
душно
999.8 997.9
05 16.09 СЗ 8 н/о н/о +33.5 +17.2 38 +37 +37 очень
душно
999.9 998.0
07 16.09 СЗ 6 н/о н/о +32.7 +17.7 41 +37 +37 очень
душно
1000.2 998.3
08 16.09 СЗ 7 н/о н/о +30.9 +17.6 45 +35 +35 очень
душно
1000.9 999.0
09 16.09 СЗ 7 н/о н/о +29.3 +17.8 50 +34 +34 очень
душно
1001.4 999.5
10 16.09 СЗ 6 н/о н/о +28.5 +18.0 53 +33 +33 очень
душно
1002.5 1000.5
11 16.09 СЗ 5 н/о н/о +28.2 +18.0 54 +33 +33 очень
душно
1003.2 1001.2
12 16.09 СЗ 5 30 км 4/1
[Cu hum Ac trans]
+28.0 +18.1 55 +33 +33 очень
душно
1003.8 1001.8 +34.2
13 16.09 СЗ 3 н/о н/о +27.3 +18.3 58 +32 +32 очень
душно
1004.2 1002.2
14 16.09 СЗ 4 н/о н/о +27.4 +17.9 56 +32 +32 очень
душно
1004.1 1002.1
15 16.09 З 3 н/о н/о +26.3 +18.7 63 +31 +31 душно 1004.7 1002.7
16 16.09 СЗ 4 н/о н/о +26.9 +17.4 56 +31 +31 душно 1005.0 1003.0
17 16.09 З 3 н/о н/о +25.6 +18.5 65 +30 +30 душно 1005.2 1003.2
18 16.09 З 3 н/о н/о +25.0 +18.5 67 +30 +30 душно 1005.8 1003.8
19 16.09 З 2 н/о н/о +24.6 +18.5 69 +29 +29 душно 1006.6 1004.6
20 16.09 З 2 н/о н/о +24.4 +18.1 68 +29 +29 душно 1007.0 1005.0
21 16.09 З 2 н/о н/о +24.4 +17.9 67 +29 +29 душно 1007.3 1005.3
22 16.09 СЗ 2 н/о н/о +25.0 +17.7 64 +29 +29 душно 1007.7 1005.7
23 16.09 З 2 н/о н/о +27.5 +18.0 56 +32 +32 очень
душно
1008.1 1006.1
01 17.09 СЗ 1 н/о н/о +29.5 +17.4 48 +34 +34 очень
душно
1008.8 1006.8
02 17.09 СВ 1 н/о н/о +30.6 +17.3 45 +35 +35 очень
душно
1008.0 1006.1
03 17.09 СВ 2 н/о н/о +32.2 +17.7 42 +36 +36 очень
душно
1007.5 1005.6
04 17.09 Ю 5 н/о н/о +34.4 +20.0 43 +40 +40 очень
душно
1007.0 1005.1
05 17.09 ЮЗ 4 н/о н/о +33.2 +18.9 43 +38 +38 очень
душно
1006.9 1005.0
06 17.09 З 5 30 км 3/3
[Cu med, cong Ac trans]
+32.4 +19.3 46 +38 +41 очень
душно
1006.9 1005.0
07 17.09 З 6 н/о н/о +31.3 +19.3 49 +37 +37 очень
душно
1007.3 1005.4
08 17.09 З 7 н/о н/о +29.7 +19.4 54 +35 +35 очень
душно
1008.0 1006.0
09 17.09 З 6 н/о н/о +28.1 +19.3 59 +34 +34 очень
душно
1008.7 1006.7
10 17.09 З 4 н/о н/о +27.3 +19.4 62 +33 +33 очень
душно
1009.2 1007.2
11 17.09 З 3 н/о н/о +26.6 +19.2 64 +32 +32 очень
душно
1009.6 1007.6
12 17.09 З 4 20 км 9/9
[Cu Sc]
+26.5 +19.1 64 +32 +32 очень
душно
1010.3 1008.3 +34.5
13 17.09 З 4 н/о н/о +26.2 +19.4 66 +32 +32 очень
душно
1010.5 1008.5
14 17.09 З 3 н/о н/о +26.2 +19.1 65 +31 +31 очень
душно
1010.6 1008.6
15 17.09 З 3 н/о н/о +25.8 +19.5 68 +31 +31 очень
душно
1010.6 1008.6
16 17.09 З 2 н/о н/о +26.0 +19.4 67 +31 +31 очень
душно
1010.4 1008.4
17 17.09 З 2 н/о н/о +25.8 +19.7 69 +31 +31 очень
душно
1009.9 1007.9
18 17.09 З 2 н/о н/о +25.5 +19.6 70 +31 +31 очень
душно
1009.9 1007.9
20 17.09 З 2 н/о н/о +25.1 +19.7 72 +31 +31 очень
душно
1009.9 1007.9
23 17.09 З 2 н/о н/о +25.2 +19.8 72 +31 +31 очень
душно
1010.7 1008.7
00 18.09 З 3 20 км {ливн. осадки} 10/6
[Cu Sc Ac As]
+25.5 +19.2 68 +31 +31 очень
душно
1011.0 1009.0 +24.4 0.0
01 18.09 З 4 н/о н/о +26.0 +18.4 63 +31 +31 очень
душно
1011.2 1009.2
02 18.09 З 3 н/о н/о +27.2 +19.6 63 +33 +33 очень
душно
1010.5 1008.5
03 18.09 З 3 н/о н/о +27.7 +18.7 58 +33 +33 очень
душно
1009.5 1007.5
04 18.09 Ю 4 н/о н/о +28.3 +18.4 55 +33 +33 очень
душно
1008.9 1006.9
05 18.09 Ю 4 н/о н/о +29.2 +18.3 52 +34 +34 очень
душно
1008.0 1006.0
06 18.09 ЮЗ 5 20 км {ливн. осадки} 8/4
[Cu Sc Ac As]
+29.7 +16.2 44 +33 +34 душно 1008.1 1006.1 0.0
07 18.09 З 5 н/о н/о +29.3 +14.3 40 +31 +31 жарко 1008.2 1006.2
09 18.09 СЗ 6 н/о н/о +26.5 +14.6 48 +29 +29 жарко 1009.4 1007.4
10 18.09 СЗ 5 н/о н/о +25.4 +14.2 50 +28 +28 жарко 1010.1 1008.1
11 18.09 СЗ 5 н/о н/о +24.6 +14.1 52 +27 +27 жарко 1010.9 1008.9
12 18.09 СЗ 5 20 км 3/1
[Cu hum Ac trans Ci sp]
+24.1 +13.9 53 +26 +26 жарко 1011.0 1009.0 +30.4 0.0
13 18.09 СЗ 4 н/о н/о +23.9 +14.0 54 +26 +26 жарко 1011.3 1009.3
14 18.09 З 3 н/о н/о +23.6 +14.1 55 +26 +26 жарко 1011.2 1009.2
15 18.09 СЗ 4 н/о н/о +24.2 +13.4 51 +26 +26 жарко 1011.0 1009.0
16 18.09 СЗ 4 н/о н/о +24.2 +12.8 49 +26 +26 жарко 1011.1 1009.1
17 18.09 СЗ 3 н/о н/о +24.0 +12.3 48 +26 +26 жарко 1010.9 1008.9
18 18.09 С 2 н/о н/о +23.5 +11.9 48 +25 +25 комфорт 1011.4 1009.4
19 18.09 СЗ 3 н/о н/о +22.8 +12.2 51 +25 +25 комфорт 1011.9 1009.9
20 18.09 СЗ 4 н/о н/о +22.7 +9.8 44 +24 +24 комфорт 1012.0 1010.0
21 18.09 С 4 н/о н/о +22.4 +11.2 49 +25 +25 комфорт 1013.0 1011.0
22 18.09 СЗ 4 н/о н/о +22.9 +12.2 51 +26 +26 жарко 1013.9 1011.9
23 18.09 С 3 н/о н/о +24.2 +12.8 49 +26 +26 жарко 1014.2 1012.2
00 19.09 С 4 40 км 3/1
[Sc Ac trans]
+25.0 +12.3 45 +27 +31 жарко 1014.2 1012.2 +22.3
01 19.09 С 3 н/о н/о +26.0 +11.4 40 +27 +27 жарко 1013.7 1011.7
02 19.09 СЗ 2 н/о н/о +27.4 +12.6 40 +29 +29 жарко 1013.7 1011.7
03 19.09 З 3 н/о н/о +27.9 +12.3 38 +29 +29 жарко 1013.2 1011.2
04 19.09 З 5 н/о н/о +28.8 +11.4 34 +29 +29 жарко 1012.7 1010.7
05 19.09 ЮЗ 6 н/о н/о +28.9 +11.9 35 +30 +30 жарко 1012.0 1010.0
06 19.09 ЮЗ 5 30 км 1/1
[Cu hum Ci sp]
+28.4 +11.9 36 +29 +32 жарко 1011.7 1009.7
07 19.09 З 6 н/о н/о +27.4 +11.4 37 +28 +28 жарко 1011.7 1009.7
08 19.09 З 6 н/о н/о +25.9 +12.0 42 +27 +27 жарко 1012.1 1010.1
09 19.09 З 6 н/о н/о +23.9 +12.2 48 +26 +26 жарко 1012.6 1010.6
10 19.09 З 6 н/о н/о +22.9 +12.2 51 +26 +26 жарко 1013.2 1011.2
11 19.09 З 5 н/о н/о +21.8 +12.4 55 +24 +24 комфорт 1014.7 1012.7
12 19.09 З 4 20 км 5/0
[Ac trans Ci fib]
+21.1 +11.7 55 +23 +23 комфорт 1014.9 1012.9 +29.4
13 19.09 З 2 н/о н/о +20.5 +11.7 57 +23 +23 комфорт 1015.0 1013.0
14 19.09 З 3 н/о н/о +20.1 +11.6 58 +22 +22 комфорт 1015.3 1013.3
15 19.09 З 2 н/о н/о +19.6 +11.6 60 +22 +22 комфорт 1015.6 1013.6
16 19.09 СЗ 2 н/о н/о +19.3 +11.6 61 +21 +21 комфорт 1015.1 1013.1
18 19.09 З 3 н/о н/о +18.3 +12.7 70 +19 +19 1015.4 1013.3
19 19.09 З 1 н/о н/о +17.9 +12.6 71 +19 +19 1015.5 1013.4
20 19.09 С 2 н/о н/о +18.2 +13.1 72 +19 +19 1015.8 1013.7
21 19.09 З 1 н/о н/о +17.6 +13.1 75 +19 +19 1016.5 1014.4
22 19.09 СЗ 2 н/о н/о +18.8 +13.0 69 +20 +20 1017.2 1015.1
23 19.09 С 2 н/о н/о +20.1 +11.3 57 +23 +23 комфорт 1017.0 1015.0

 

Местоположение метеостанции Гифу (Япония): широта 35.40 долгота 136.76 высота над уровнем моря 17 м.

В архиве по умолчанию представлена погода в Гифу за последнюю неделю. Архивные данные за месяц целиком и за предыдущие месяцы, начиная с января 2011 года, Вы можете получить, выбрав интересующий диапазон дат из раскрывающегося списка и нажав кнопку "Ввод!".


*Определитесь, кто Вы:
робот инопланетянин человек

Внимание! Время в таблицах - всемирное. Для получения местного времени необходимо прибавить поправку, которая равна 9 ч.

Смотрите также архив погоды в соседних городах и на ближайших метеорологических станциях:

Погода в Нагоя (Япония) (31 км)
Погода в Хиконе (Япония) (48 км)
Погода в Йоккаити (Япония) (55 км)
Погода в Цуруге (Япония) (69 км)
Погода в Цу (Япония) (78 км)
Погода в Фукуи (Япония) (88 км)
Погода в Уэно (Япония) (89 км)
Погода в Ирако (Япония) (91 км)
Погода в Такаяме (Япония) (94 км)
Погода в Ииде (Япония) (96 км)

Пояснения к столбцам:

Ветер - указаны скорость ветра в м/с - средняя за 10 мин, порывы в срок и между сроками (в фигурных скобках) и направление, откуда дует ветер: С - северный, СВ - северо-восточный, В - восточный, ЮВ - юго-восточный, Ю - южный, ЮЗ - юго-западный, З - западный, СЗ - северо-западный.
Видимость - горизонтальная дальность видимости в метрах или километрах. При видимости от 1 до 10 км при отсутствии осадков обычно наблюдается дымка, при ухудшении видимости до 1 км и менее - туман. В сухую погоду видимость может ухудшаться дымом, пылью или мглою.
Явления - указаны атмосферные явления, наблюдавшиеся в срок или в последний час перед сроком; фигурными скобками обозначены явления, наблюдавшиеся между сроками (за 1-3 часа до срока); квадратными скобками обозначены град или гололедные отложения с указанием их диаметра в мм.
Облачность - указаны через наклонную черту общая и нижняя облачность в баллах и высота нижней границы облаков в метрах; квадратными скобками обозначены формы облаков: Ci - перистые, Cs - перисто-слоистые, Cc - перисто-кучевые, Ac - высококучевые, As - высокослоистые, Sc - слоисто-кучевые, Ns - слоисто-дождевые, Cu - кучевые, Cb - кучево-дождевые. Подробнее классификацию облаков см. в Атласе облаков (PDF).
T - Температура воздуха - температура, измеренная на высоте 2 м над землей.
Td - Температура точки росы - температура, при понижении до которой содержащийся в воздухе водяной пар достигнет насыщения.
f - Относительная влажность воздуха - влажноcть воздуха, измеренная на высоте 2 м над землей.
Te - Эффективная температура - температура, которую ощущает одетый по сезону человек в тени. Характеристика душности погоды. При расчете учитывается влияние влажности воздуха и скорости ветра на теплоощущения человека.
Tes - Эффективная температура на солнце - температура, которую ощущает человек, с поправкой на солнечный нагрев. Характеристика знойности погоды. Зависит от высоты солнца над горизонтом, облачности и скорости ветра. Ночью, в пасмурную погоду, а также при ветре 12 м/с и более поправка равна нулю.
P - Атмосферное давление - приведенное к уровню моря атмосферное давление.
Po - Атмосферное давление - измеренное на уровне метеостанции атмосферное давление.
Tmin - Минимальная температура - минимум температуры воздуха на высоте 2 м над землей.
Tmax - Максимальная температура - максимум температуры воздуха на высоте 2 м над землей.
R - Количество осадков - Количество выпавших осадков за период времени, мм. При наведении курсора мыши на число - период времени, за который выпало указанное количество осадков.
R24 - Количество осадков - Количество выпавших осадков за 24 часа, мм.
S - Снежный покров - Высота снежного покрова, см. При наведении курсора мыши на число - состояние снежного покрова и степень покрытия местности в баллах.